This is the latest recevied weather packets stored in our database for station/object N9DRW. If no packets are shown the sender has not sent any weather packets the latest 10 day(s).
| Time | Temp. | Humidity | Pressure | Rain* | Wind** | Luminosity | Snow |
|---|---|---|---|---|---|---|---|
| 1777523529 | 4.44° C | 81% | 0 hPa | 0 mm | - | - | - |
| 1777522932 | 4.44° C | 85% | 0 hPa | 0 mm | - | - | - |
| 1777522326 | 3.89° C | 84% | 0 hPa | 0 mm | - | - | - |
| 1777521726 | 3.89° C | 92% | 0 hPa | 0 mm | - | - | - |
| 1777521126 | 3.89° C | 94% | 0 hPa | 0 mm | - | - | - |
| 1777520526 | 3.89° C | 93% | 0 hPa | 0 mm | - | - | - |
| 1777519926 | 3.89° C | 93% | 0 hPa | 0 mm | - | - | - |
| 1777519326 | 3.89° C | 91% | 0 hPa | 0 mm | - | - | - |
| 1777518726 | 4.44° C | 90% | 0 hPa | 0 mm | - | - | - |
| 1777518126 | 5° C | 88% | 0 hPa | 0 mm | - | - | - |
| 1777517525 | 5.56° C | 86% | 0 hPa | 0 mm | - | - | - |
| 1777516926 | 5.56° C | 86% | 0 hPa | 0 mm | - | - | - |
| 1777516326 | 5.56° C | 87% | 0 hPa | 0 mm | - | - | - |
| 1777515726 | 5.56° C | 86% | 0 hPa | 0 mm | - | - | - |
| 1777515126 | 5° C | 87% | 0 hPa | 0 mm | - | - | - |
| 1777514526 | 5.56° C | 85% | 0 hPa | 0 mm | - | - | - |
| 1777513926 | 5.56° C | 83% | 0 hPa | 0 mm | - | - | - |
| 1777513326 | 6.11° C | 82% | 0 hPa | 0 mm | - | - | - |
| 1777512726 | 6.11° C | 81% | 0 hPa | 0 mm | - | - | - |
| 1777512126 | 6.67° C | 79% | 0 hPa | 0 mm | - | - | - |
| 1777511526 | 7.22° C | 78% | 0 hPa | 0 mm | - | - | - |
| 1777510926 | 7.78° C | 75% | 0 hPa | 0 mm | - | - | - |
| 1777510326 | 8.33° C | 72% | 0 hPa | 0 mm | - | - | - |
| 1777509726 | 8.89° C | 70% | 0 hPa | 0 mm | - | - | - |
| 1777509129 | 8.89° C | 69% | 0 hPa | 0 mm | - | - | - |
* Rain latest hour (hover to see other rain measurements)
** Current wind speed in m/s (hover to see current wind gust speed)